GW3733 Weather Reports


time (UTC)temp
C
wind
direction
speed
KPH
gust
KPH
rain 1hr
cm
rain 24hr
cm
rain mn
cm
humidity
%
barometer
mb
20260506215741 16 339 1.6 1.6 0.13 0.15 0.15 91 1005.6
20260506215236 16 348 1.6 3.2 0.00 0.13 0.13 89 1005.5
20260506214733 16 318 4.8 4.8 0.00 0.13 0.13 89 1005.4
20260506214230 16 299 9.7 12.9 0.00 0.13 0.13 88 1004.9
20260506213728 16 332 3.2 3.2 0.00 0.13 0.13 89 1004.9
20260506213225 16 306 4.8 6.4 0.00 0.13 0.13 89 1004.8
20260506212722 17 358 3.2 4.8 0.00 0.13 0.13 90 1004.4
20260506212218 17 313 6.4 6.4 0.00 0.13 0.13 89 1004.7
20260506211713 17 330 1.6 1.6 0.00 0.13 0.13 88 1004.7
20260506211210 17 279 1.6 3.2 0.00 0.13 0.13 89 1004.7
20260506210707 17 333 4.8 4.8 0.00 0.13 0.13 89 1004.4
20260506210204 17 358 3.2 3.2 0.00 0.13 0.13 90 1004.4
20260506205702 17 357 0.0 1.6 0.00 0.13 0.13 90 1004.5
20260506205201 18 25 3.2 4.8 0.00 0.13 0.13 87 1004.5
20260506204659 18 338 3.2 3.2 0.00 0.13 0.13 84 1004.4
20260506204156 18 349 1.6 1.6 0.00 0.13 0.13 80 1004.0
20260506203654 19 2 1.6 3.2 0.00 0.13 0.13 81 1003.7
20260506203151 19 347 0.0 0.0 0.00 0.13 0.13 80 1004.0
20260506202649 20 342 0.0 1.6 0.00 0.13 0.13 82 1004.0
20260506202144 20 359 0.0 0.0 0.00 0.13 0.13 80 1003.6
20260506201642 20 343 0.0 0.0 0.00 0.13 0.13 81 1003.6
20260506201138 20 359 0.0 0.0 0.00 0.13 0.13 84 1003.6
20260506200635 19 359 0.0 0.0 0.00 0.13 0.13 84 1003.7
20260506200132 19 359 0.0 0.0 0.00 0.13 0.13 82 1003.6
20260506195628 19 10 0.0 0.0 0.00 0.13 0.13 82 1003.7
20260506195125 19 353 0.0 0.0 0.00 0.13 0.13 81 1003.6
20260506194622 19 3 0.0 0.0 0.00 0.13 0.13 82 1003.6
20260506194118 20 10 0.0 0.0 0.00 0.13 0.13 81 1003.4
20260506193617 20 12 0.0 0.0 0.00 0.13 0.13 80 1003.6
20260506193114 20 359 0.0 0.0 0.00 0.13 0.13 81 1003.5
20260506192610 20 1 0.0 0.0 0.00 0.13 0.13 81 1003.4
20260506192106 20 13 0.0 0.0 0.00 0.13 0.13 80 1003.7
20260506191603 20 0 0.0 0.0 0.00 0.13 0.13 82 1003.5
20260506191059 20 1 0.0 0.0 0.00 0.13 0.13 83 1003.7
20260506190556 20 0 0.0 0.0 0.00 0.13 0.13 81 1003.6
20260506190053 19 0 0.0 0.0 0.00 0.13 0.13 80 1003.8
20260506185550 20 299 1.6 3.2 0.00 0.13 0.13 79 1003.6
20260506185047 19 355 0.0 0.0 0.00 0.13 0.13 82 1003.8
20260506184544 20 324 1.6 3.2 0.00 0.13 0.13 81 1003.8
20260506184042 20 354 0.0 0.0 0.00 0.13 0.13 81 1003.6
20260506183537 20 4 0.0 0.0 0.00 0.13 0.13 81 1003.6
20260506183034 20 5 0.0 0.0 0.00 0.13 0.13 82 1003.5
20260506182531 19 343 1.6 3.2 0.00 0.13 0.13 83 1003.4
20260506182028 18 10 0.0 0.0 0.00 0.13 0.13 85 1003.7
20260506181526 18 1 0.0 0.0 0.00 0.13 0.13 86 1003.6
20260506181023 18 351 0.0 0.0 0.00 0.13 0.13 87 1003.7
20260506180520 18 1 0.0 0.0 0.00 0.13 0.13 89 1003.7
20260506180016 18 5 1.6 1.6 0.00 0.13 0.13 89 1004.0
20260506175513 18 347 0.0 1.6 0.00 0.13 0.13 88 1003.8
20260506175009 18 359 0.0 0.0 0.00 0.13 0.13 88 1003.8
20260506174508 18 358 0.0 0.0 0.00 0.13 0.13 88 1003.7
20260506174003 18 1 0.0 0.0 0.00 0.13 0.13 89 1003.6
20260506173501 18 0 0.0 0.0 0.00 0.13 0.13 89 1003.7
20260506172958 18 5 0.0 0.0 0.00 0.13 0.13 88 1003.6
20260506172455 18 5 0.0 0.0 0.00 0.13 0.13 87 1003.7
20260506171951 18 3 0.0 0.0 0.00 0.13 0.13 85 1003.6
20260506171449 18 3 3.2 3.2 0.00 0.13 0.13 84 1003.6
20260506170947 18 0 0.0 0.0 0.00 0.13 0.13 85 1003.6
20260506170443 18 355 0.0 0.0 0.00 0.13 0.13 85 1003.4
20260506165936 18 356 0.0 0.0 0.00 0.13 0.13 84 1003.6
20260506165434 18 334 0.0 0.0 0.00 0.13 0.13 84 1003.6
20260506164929 18 350 0.0 0.0 0.00 0.13 0.13 84 1003.3
20260506164427 18 334 0.0 1.6 0.00 0.13 0.13 83 1003.5
20260506163919 18 355 1.6 1.6 0.00 0.13 0.13 83 1003.4
20260506163413 18 345 0.0 0.0 0.00 0.13 0.13 83 1003.3
20260506162908 18 338 0.0 0.0 0.00 0.13 0.13 83 1003.3
20260506162407 18 315 0.0 1.6 0.00 0.13 0.13 83 1003.4
20260506161904 18 1 0.0 0.0 0.00 0.13 0.13 82 1003.4
20260506161401 18 272 3.2 3.2 0.00 0.13 0.13 82 1003.3
20260506160853 18 299 3.2 4.8 0.00 0.13 0.13 82 1003.5
20260506160350 18 356 0.0 0.0 0.00 0.13 0.13 82 1003.4
20260506155848 18 334 1.6 1.6 0.00 0.13 0.13 82 1003.3
20260506155344 18 11 0.0 0.0 0.00 0.13 0.13 80 1003.2
20260506153456 18 265 1.6 3.2 0.00 0.13 0.13 80 1003.3
20260506152953 18 2 0.0 0.0 0.00 0.13 0.13 81 1003.3
20260506152450 18 8 1.6 1.6 0.00 0.13 0.13 80 1003.4
20260506151948 18 334 3.2 6.4 0.00 0.13 0.13 82 1003.4
20260506151445 18 298 3.2 3.2 0.00 0.13 0.13 82 1003.5
20260506150943 18 320 1.6 1.6 0.00 0.13 0.13 83 1003.3
20260506150438 18 122 9.7 12.9 0.00 0.13 0.13 81 1003.4
20260506145936 18 351 1.6 1.6 0.00 0.13 0.13 83 1003.3
20260506145432 18 1 0.0 0.0 0.00 0.13 0.13 89 1003.2
20260506144930 17 342 0.0 0.0 0.00 0.13 0.13 88 1003.3
20260506144426 17 31 3.2 6.4 0.00 0.13 0.13 89 1003.2
20260506143925 17 224 1.6 1.6 0.00 0.13 0.13 90 1003.5
20260506143421 16 354 0.0 0.0 0.00 0.13 0.13 93 1003.5
20260506142920 16 54 1.6 3.2 0.00 0.13 0.13 90 1003.5
20260506142417 16 346 0.0 1.6 0.00 0.13 0.13 93 1003.4
20260506141915 16 9 0.0 0.0 0.00 0.13 0.13 95 1003.4
20260506141413 15 324 0.0 0.0 0.00 0.13 0.13 97 1003.4
20260506140911 15 346 0.0 0.0 0.00 0.13 0.13 98 1003.6
20260506140408 15 353 0.0 0.0 0.00 0.13 0.13 99 1003.5
20260506135905 15 336 0.0 0.0 0.00 0.13 0.13 99 1003.6
20260506135402 15 330 0.0 1.6 0.00 0.13 0.13 99 1003.7
20260506134858 14 6 0.0 1.6 0.00 0.13 0.13 99 1003.7
20260506134354 14 353 0.0 0.0 0.00 0.13 0.13 99 1003.8
20260506133851 14 352 0.0 0.0 0.00 0.13 0.13 99 1004.0
20260506133348 14 12 0.0 0.0 0.00 0.13 0.13 99 1004.2
20260506132844 14 15 0.0 0.0 0.00 0.13 0.13 99 1004.0
20260506132342 14 89 1.6 3.2 0.00 0.13 0.13 99 1003.9
20260506131840 14 8 0.0 0.0 0.00 0.13 0.13 99 1004.1
20260506131336 14 0 0.0 0.0 0.00 0.13 0.13 99 1004.3
20260506130833 13 6 0.0 0.0 0.00 0.13 0.13 99 1003.9
20260506130329 14 357 0.0 0.0 0.00 0.13 0.13 99 1003.8
20260506125827 14 6 0.0 0.0 0.00 0.13 0.13 99 1003.6
20260506125325 13 324 1.6 1.6 0.18 0.13 0.13 99 1003.5
20260506124824 13 8 0.0 0.0 0.18 0.13 0.13 99 1003.7
20260506124320 14 359 0.0 0.0 0.13 0.10 0.10 99 1003.8
20260506123818 14 359 0.0 0.0 0.13 0.10 0.10 99 1003.8
20260506123316 14 4 0.0 0.0 0.18 0.08 0.08 99 1003.9
20260506122813 14 14 0.0 0.0 0.18 0.08 0.08 98 1003.9
20260506122310 14 13 0.0 0.0 0.00 0.05 0.05 98 1004.0
20260506121808 14 13 0.0 0.0 0.00 0.05 0.05 98 1003.9
20260506121304 14 13 0.0 0.0 0.13 0.05 0.05 98 1004.2
20260506120802 14 13 0.0 0.0 0.13 0.05 0.05 97 1004.0
20260506120300 14 12 0.0 0.0 0.00 0.03 0.03 97 1004.2
20260506115757 14 12 0.0 0.0 0.00 0.03 0.03 97 1004.2
20260506115255 14 12 0.0 0.0 0.00 0.03 0.03 97 1004.3
20260506114753 14 12 0.0 0.0 0.00 0.03 0.03 96 1004.1
20260506114250 14 10 0.0 0.0 0.00 0.03 0.03 96 1004.2
20260506113748 14 10 0.0 0.0 0.00 0.03 0.03 96 1004.2
20260506113246 14 11 0.0 0.0 0.18 0.03 0.03 95 1004.0
20260506112742 13 11 0.0 0.0 0.18 0.03 0.03 94 1004.2
20260506112240 14 11 0.0 0.0 0.00 0.00 0.00 93 1004.0
20260506111737 14 13 0.0 0.0 0.00 0.00 0.00 93 1004.1
20260506111235 14 2 0.0 0.0 0.00 0.00 0.00 91 1004.4
20260506110731 14 0 0.0 0.0 0.00 0.00 0.00 90 1004.2
20260506110229 15 359 0.0 0.0 0.00 0.00 0.00 89 1004.2
20260506105725 15 2 0.0 0.0 0.00 0.00 0.00 86 1004.2
20260506105223 15 2 0.0 0.0 0.00 0.00 0.00 84 1003.9
20260506104721 15 9 0.0 0.0 0.00 0.00 0.00 80 1003.8
20260506104218 15 358 0.0 0.0 0.00 0.00 0.00 80 1003.7
20260506103715 15 358 0.0 0.0 0.00 0.00 0.00 79 1003.8
20260506103211 15 358 0.0 0.0 0.00 0.00 0.00 77 1004.0
20260506102710 15 358 0.0 0.0 0.00 0.00 0.00 76 1003.7
20260506102208 15 358 0.0 0.0 0.00 0.00 0.00 73 1003.9
20260506101704 16 358 0.0 0.0 0.00 0.00 0.00 73 1003.7
20260506101200 16 357 0.0 0.0 0.00 0.00 0.00 74 1003.5
20260506100659 16 10 0.0 0.0 0.00 0.00 0.00 70 1003.4
20260506100156 16 356 0.0 0.0 0.00 0.00 0.00 68 1003.3
20260506095655 16 355 0.0 0.0 0.00 0.00 0.00 70 1003.3
20260506095151 16 4 0.0 0.0 0.00 0.00 0.00 64 1003.5
20260506094649 17 8 0.0 0.0 0.00 0.00 0.00 65 1003.2
20260506094146 17 357 0.0 0.0 0.00 0.00 0.00 63 1003.3
20260506093645 17 355 0.0 0.0 0.00 0.00 0.00 64 1003.3
20260506093142 17 8 0.0 0.0 0.00 0.00 0.00 62 1003.2
20260506092639 17 356 0.0 0.0 0.00 0.00 0.00 61 1003.2
20260506092136 17 10 0.0 0.0 0.00 0.00 0.00 62 1003.2
20260506091634 17 18 0.0 0.0 0.00 0.00 0.00 61 1003.4
20260506091131 17 357 0.0 0.0 0.00 0.00 0.00 61 1003.6
20260506090630 17 0 0.0 0.0 0.00 0.00 0.00 62 1003.7
20260506090125 17 357 0.0 0.0 0.00 0.00 0.00 62 1003.7
20260506085623 17 356 0.0 0.0 0.00 0.00 0.00 62 1003.6
20260506085119 17 5 0.0 0.0 0.00 0.00 0.00 60 1003.4
20260506084615 17 358 0.0 0.0 0.00 0.00 0.00 62 1003.4
20260506084112 17 358 0.0 0.0 0.00 0.00 0.00 62 1003.6
20260506083609 17 358 0.0 0.0 0.00 0.00 0.00 63 1003.5
20260506083107 17 353 0.0 0.0 0.00 0.00 0.00 61 1003.6
20260506082603 17 17 0.0 0.0 0.00 0.00 0.00 61 1003.8
20260506082059 17 1 0.0 0.0 0.00 0.00 0.00 60 1003.7
20260506081557 17 357 0.0 1.6 0.00 0.00 0.00 60 1003.6
20260506081054 17 8 0.0 0.0 0.00 0.00 0.00 58 1003.7
20260506080552 17 37 0.0 0.0 0.00 0.00 0.00 58 1003.6
20260506073032 18 314 1.6 1.6 0.00 0.00 0.00 55 1003.7
20260506072530 18 0 0.0 1.6 0.00 0.00 0.00 56 1003.6
20260506072027 18 0 0.0 0.0 0.00 0.00 0.00 55 1003.8
20260506071525 18 351 0.0 0.0 0.00 0.00 0.00 57 1003.8
20260506071022 18 2 0.0 0.0 0.00 0.00 0.00 56 1003.6
20260506070519 18 345 0.0 0.0 0.00 0.00 0.00 56 1003.8
20260506062457 18 356 0.0 0.0 0.00 0.00 0.00 54 1004.2
20260506061953 18 261 1.6 3.2 0.00 0.00 0.00 54 1004.4
20260506061449 18 3 0.0 0.0 0.00 0.00 0.00 53 1004.4
20260506060947 18 3 1.6 3.2 0.00 0.00 0.00 51 1004.5
20260506060445 18 357 0.0 0.0 0.00 0.00 0.00 52 1004.5
20260506050914 18 64 0.0 3.2 0.00 0.00 0.00 52 1005.4
20260506050412 18 1 0.0 0.0 0.00 0.00 0.00 50 1005.6
20260506044902 19 12 0.0 0.0 0.00 0.00 0.00 49 1005.6
20260506044400 19 358 0.0 0.0 0.00 0.00 0.00 49 1005.4
20260506043857 19 5 0.0 0.0 0.00 0.00 0.00 49 1005.5
20260506043354 19 1 0.0 0.0 0.00 0.00 0.00 48 1005.4
20260506042852 20 2 0.0 0.0 0.00 0.00 0.00 48 1005.2
20260506042351 20 358 0.0 1.6 0.00 0.00 0.00 50 1005.3
20260506041849 20 354 0.0 0.0 0.00 0.00 0.00 48 1005.4
20260506041346 20 346 0.0 1.6 0.00 0.00 0.00 45 1005.5
20260506040843 20 19 1.6 1.6 0.00 0.00 0.00 44 1005.4
20260506040340 20 14 0.0 0.0 0.00 0.00 0.00 44 1005.3
20260506035836 20 336 0.0 1.6 0.00 0.00 0.00 45 1005.4
20260506035334 20 21 0.0 1.6 0.00 0.00 0.00 47 1005.3
20260506034831 20 359 0.0 0.0 0.00 0.00 0.00 46 1005.3
20260506034328 20 318 1.6 3.2 0.00 0.00 0.00 43 1005.4
20260506033825 20 5 0.0 0.0 0.00 0.00 0.00 46 1005.5
20260506033322 21 355 0.0 0.0 0.00 0.00 0.00 43 1005.3
20260506032819 20 39 3.2 3.2 0.00 0.00 0.00 44 1005.6
20260506032316 21 354 0.0 0.0 0.00 0.00 0.00 44 1005.4
20260506031812 21 336 1.6 1.6 0.00 0.00 0.00 43 1005.4
20260506031310 21 357 0.0 0.0 0.00 0.00 0.00 43 1005.3
20260506030807 21 353 3.2 3.2 0.00 0.00 0.00 43 1005.4
20260506030305 21 266 6.4 9.7 0.00 0.00 0.00 42 1005.4
20260506025802 21 330 1.6 1.6 0.00 0.00 0.00 44 1005.4
20260506025258 21 27 0.0 0.0 0.00 0.00 0.00 43 1005.4
20260506024755 21 233 1.6 3.2 0.00 0.00 0.00 42 1005.5
20260506024252 21 36 1.6 1.6 0.00 0.00 0.00 45 1005.6
20260506023748 21 2 0.0 1.6 0.00 0.00 0.00 42 1005.4
20260506023245 21 354 0.0 0.0 0.00 0.00 0.00 44 1005.6
20260506022742 21 342 3.2 3.2 0.00 0.00 0.00 43 1005.5
20260506022240 21 326 1.6 1.6 0.00 0.00 0.00 44 1005.5
20260506021738 21 29 0.0 0.0 0.00 0.00 0.00 42 1005.5
20260506021234 21 193 3.2 3.2 0.00 0.00 0.00 43 1005.6
20260506020731 21 277 1.6 3.2 0.00 0.00 0.00 44 1005.4
20260506020229 21 29 1.6 3.2 0.00 0.00 0.00 44 1005.2
20260506015726 21 326 1.6 1.6 0.00 0.00 0.00 43 1005.4
20260506015224 21 194 3.2 3.2 0.00 0.00 0.00 43 1005.3
20260506014721 21 7 0.0 0.0 0.00 0.00 0.00 43 1005.3
20260506014217 20 357 0.0 0.0 0.00 0.00 0.00 46 1005.3
20260506013714 21 351 0.0 0.0 0.00 0.00 0.00 46 1005.3
20260506013211 21 322 0.0 1.6 0.00 0.00 0.00 43 1005.2
20260506012707 21 3 1.6 1.6 0.00 0.00 0.00 43 1005.4
20260506012205 20 348 1.6 1.6 0.00 0.00 0.00 42 1005.4
20260506011702 21 8 0.0 0.0 0.00 0.00 0.00 43 1005.4
20260506011158 21 236 6.4 6.4 0.00 0.00 0.00 41 1005.3
20260506010657 21 316 0.0 0.0 0.00 0.00 0.00 44 1005.3
20260506010153 21 356 0.0 0.0 0.00 0.00 0.00 43 1005.2
20260506005650 20 152 3.2 4.8 0.00 0.00 0.00 41 1005.0
20260506005147 21 1 0.0 0.0 0.00 0.00 0.00 42 1005.1
20260506004643 21 304 1.6 1.6 0.00 0.00 0.00 43 1005.2
20260506004141 21 1 1.6 1.6 0.00 0.00 0.00 42 1004.8
20260506003637 21 331 0.0 1.6 0.00 0.00 0.00 41 1004.9
20260506003133 21 45 4.8 4.8 0.00 0.00 0.00 40 1005.0
20260506002629 22 345 1.6 1.6 0.00 0.00 0.00 43 1004.8
20260506002125 22 285 1.6 3.2 0.00 0.00 0.00 40 1004.5
20260506001621 22 192 3.2 4.8 0.00 0.00 0.00 39 1004.9
20260506001119 22 51 4.8 6.4 0.00 0.00 0.00 39 1004.4
20260506000616 22 37 3.2 4.8 0.00 0.00 0.00 40 1004.7
20260506000113 22 317 0.0 0.0 0.00 0.00 0.00 42 1004.7
20260505235611 22 318 0.0 1.6 0.00 0.00 0.00 43 1004.4
20260505235108 22 336 0.0 1.6 0.00 0.00 0.00 42 1004.4
20260505234605 22 298 1.6 1.6 0.00 0.00 0.00 43 1004.3
20260505234101 23 5 1.6 3.2 0.00 0.00 0.00 42 1004.3
20260505233559 23 251 4.8 4.8 0.00 0.00 0.00 41 1004.3
20260505233056 23 349 1.6 1.6 0.00 0.00 0.00 41 1004.3
20260505232554 23 335 3.2 3.2 0.00 0.00 0.00 39 1004.2
20260505232051 23 356 1.6 1.6 0.00 0.00 0.00 39 1004.4
20260505231548 23 201 6.4 11.3 0.00 0.00 0.00 39 1004.3
20260505231047 23 228 3.2 3.2 0.00 0.00 0.00 37 1004.1
20260505230544 23 179 6.4 6.4 0.00 0.00 0.00 38 1004.2
20260505230040 24 102 1.6 3.2 0.00 0.00 0.00 38 1004.2
20260505225537 25 314 3.2 4.8 0.00 0.00 0.00 36 1004.4
20260505225033 25 232 3.2 4.8 0.00 0.00 0.00 36 1004.2
20260505224531 25 344 1.6 3.2 0.00 0.00 0.00 37 1004.3
20260505224028 25 358 3.2 3.2 0.00 0.00 0.00 34 1004.4
20260505223525 25 294 3.2 4.8 0.00 0.00 0.00 35 1004.2
20260505223021 25 117 4.8 9.7 0.00 0.00 0.00 34 1004.4
20260505222517 25 7 0.0 0.0 0.00 0.00 0.00 35 1004.4
20260505222013 25 291 3.2 3.2 0.00 0.00 0.00 35 1004.4
20260505221511 25 319 1.6 3.2 0.00 0.00 0.00 37 1004.2
20260505221007 25 9 1.6 1.6 0.00 0.00 0.00 35 1004.2
20260505220504 25 9 0.0 1.6 0.00 0.00 0.00 35 1004.0
20260505220002 25 37 1.6 1.6 0.00 0.00 0.00 35 1004.3